ETH825 HAAB-FMCH

Flight info

Callsign ETH825
Flight time 2h 59m
Altitude 41000
Route IMKIT3A IMKIT UT129 ALEMU/N0486F400 UN301 MOV UL431 EGPET/N0485F410 UT913 KINAN KINAN1V
Aircraft A359/H-SDE2E3GHIJ3J4J5LM1ORWXY/LB1D1

Departure

Time 2026-05-08 10:21
Airport Addis Ababa Bole International Airport (HAAB)

Arrival

Time 2026-05-08 13:21
Airport Prince Said Ibrahim International Airport (FMCH)
Time Latitude Longitude Altitude Speed Heading
2026-05-08 09:57 8.97818 38.78903 7627 ft 0 kts 163°
2026-05-08 10:04 8.97834 38.78898 7629 ft 3 kts 163°
2026-05-08 10:04 8.97853 38.78893 7632 ft 3 kts 175°
2026-05-08 10:04 8.97874 38.78894 7632 ft 3 kts 198°
2026-05-08 10:04 8.97892 38.78903 7633 ft 3 kts 219°
2026-05-08 10:05 8.97905 38.78917 7636 ft 3 kts 240°
2026-05-08 10:05 8.97912 38.78936 7632 ft 2 kts 260°
2026-05-08 10:05 8.97915 38.78953 7633 ft 3 kts 261°
2026-05-08 10:05 8.97916 38.78962 7633 ft 0 kts 252°
2026-05-08 10:15 8.97914 38.78955 7627 ft 3 kts 253°
2026-05-08 10:15 8.97906 38.78925 7627 ft 5 kts 253°
2026-05-08 10:15 8.97895 38.78890 7627 ft 7 kts 253°
2026-05-08 10:16 8.97876 38.78826 7627 ft 10 kts 253°
2026-05-08 10:16 8.97856 38.78760 7627 ft 9 kts 245°
2026-05-08 10:16 8.97826 38.78748 7627 ft 4 kts 179°
2026-05-08 10:16 8.97806 38.78752 7627 ft 5 kts 167°
2026-05-08 10:17 8.97762 38.78764 7627 ft 8 kts 164°
2026-05-08 10:17 8.97706 38.78781 7627 ft 9 kts 163°
2026-05-08 10:17 8.97618 38.78808 7627 ft 11 kts 164°
2026-05-08 10:17 8.97568 38.78798 7628 ft 5 kts 229°
2026-05-08 10:18 8.97551 38.78754 7628 ft 11 kts 255°
2026-05-08 10:18 8.97535 38.78703 7628 ft 12 kts 252°
2026-05-08 10:18 8.97509 38.78620 7628 ft 13 kts 254°
2026-05-08 10:18 8.97482 38.78528 7627 ft 14 kts 251°
2026-05-08 10:19 8.97453 38.78433 7628 ft 14 kts 254°
2026-05-08 10:19 8.97426 38.78335 7628 ft 15 kts 254°
2026-05-08 10:19 8.97370 38.78276 7627 ft 10 kts 172°
2026-05-08 10:20 8.97257 38.78359 7625 ft 7 kts 141°
2026-05-08 10:20 8.97244 38.78395 7626 ft 5 kts 89°
2026-05-08 10:20 8.97251 38.78425 7626 ft 1 kts 74°
2026-05-08 10:20 8.97253 38.78430 7626 ft 6 kts 73°
2026-05-08 10:21 8.97299 38.78587 7627 ft 50 kts 74°
2026-05-08 10:21 8.97463 38.79153 7626 ft 113 kts 73°
2026-05-08 10:21 8.97742 38.80081 7653 ft 162 kts 71°
2026-05-08 10:21 8.98114 38.81169 8418 ft 162 kts 68°
2026-05-08 10:22 8.98520 38.82230 9077 ft 155 kts 69°
2026-05-08 10:22 8.98865 38.83238 9532 ft 153 kts 70°
2026-05-08 10:22 8.99128 38.84322 9826 ft 165 kts 77°
2026-05-08 10:22 8.99370 38.85484 10057 ft 178 kts 76°
2026-05-08 10:23 8.99664 38.86763 10238 ft 196 kts 75°
2026-05-08 10:23 9.00013 38.88151 10463 ft 211 kts 74°
2026-05-08 10:23 9.00409 38.89628 10712 ft 225 kts 73°
2026-05-08 10:23 9.00767 38.91219 10974 ft 239 kts 85°
2026-05-08 10:24 9.00328 38.92831 11435 ft 246 kts 118°
2026-05-08 10:24 8.99042 38.93994 11996 ft 257 kts 147°
2026-05-08 10:24 8.97263 38.94392 12446 ft 272 kts 178°
2026-05-08 10:24 8.95434 38.93824 12875 ft 284 kts 208°
2026-05-08 10:25 8.94043 38.92388 13377 ft 289 kts 237°
2026-05-08 10:25 8.93117 38.90587 13944 ft 290 kts 242°
2026-05-08 10:25 8.92207 38.88766 14475 ft 291 kts 241°
2026-05-08 10:25 8.91234 38.86958 14970 ft 294 kts 239°
2026-05-08 10:26 8.90109 38.85237 15507 ft 294 kts 226°
2026-05-08 10:26 8.88514 38.83970 15963 ft 293 kts 202°
2026-05-08 10:26 8.86608 38.83198 16273 ft 301 kts 194°
2026-05-08 10:26 8.84569 38.82526 16469 ft 313 kts 193°
2026-05-08 10:27 8.82456 38.81842 16684 ft 326 kts 194°
2026-05-08 10:27 8.80265 38.81123 16893 ft 337 kts 194°
2026-05-08 10:27 8.77991 38.80368 17092 ft 349 kts 195°
2026-05-08 10:27 8.75657 38.79579 17283 ft 360 kts 196°
2026-05-08 10:28 8.73248 38.78761 17450 ft 370 kts 196°
2026-05-08 10:28 8.70780 38.77922 17637 ft 379 kts 196°
2026-05-08 10:28 8.68250 38.77069 17793 ft 388 kts 195°
2026-05-08 10:28 8.65623 38.76334 17954 ft 395 kts 189°
2026-05-08 10:29 8.62883 38.75979 18112 ft 400 kts 180°
2026-05-08 10:29 8.60081 38.76034 18272 ft 406 kts 174°
2026-05-08 10:29 8.57238 38.76227 18432 ft 413 kts 174°
2026-05-08 10:29 8.54357 38.76438 18652 ft 417 kts 174°
2026-05-08 10:30 8.51454 38.76648 18904 ft 419 kts 174°
2026-05-08 10:30 8.48540 38.76854 19207 ft 420 kts 174°
2026-05-08 10:30 8.45618 38.77059 19490 ft 422 kts 174°
2026-05-08 10:30 8.42686 38.77261 19747 ft 424 kts 174°
2026-05-08 10:31 8.39740 38.77463 20019 ft 425 kts 174°
2026-05-08 10:31 8.36778 38.77662 20291 ft 427 kts 174°
2026-05-08 10:31 8.33808 38.77864 20549 ft 429 kts 174°
2026-05-08 10:31 8.30827 38.78067 20801 ft 431 kts 174°
2026-05-08 10:32 8.27838 38.78271 21064 ft 432 kts 174°
2026-05-08 10:32 8.24831 38.78476 21312 ft 434 kts 174°
2026-05-08 10:32 8.21813 38.78682 21564 ft 435 kts 174°
2026-05-08 10:32 8.18778 38.78890 21794 ft 438 kts 174°
2026-05-08 10:33 8.15739 38.79100 22055 ft 439 kts 174°
2026-05-08 10:33 8.12687 38.79309 22294 ft 441 kts 174°
2026-05-08 10:33 8.09618 38.79520 22538 ft 443 kts 174°
2026-05-08 10:33 8.06539 38.79730 22784 ft 444 kts 174°
2026-05-08 10:34 8.03457 38.79941 23021 ft 445 kts 175°
2026-05-08 10:34 8.00358 38.80153 23238 ft 447 kts 174°
2026-05-08 10:34 7.97248 38.80367 23474 ft 449 kts 174°
2026-05-08 10:34 7.94122 38.80582 23665 ft 450 kts 175°
2026-05-08 10:35 7.90994 38.80795 23863 ft 452 kts 175°
2026-05-08 10:35 7.87851 38.81009 24066 ft 453 kts 175°
2026-05-08 10:35 7.84706 38.81224 24268 ft 454 kts 174°
2026-05-08 10:35 7.81552 38.81440 24489 ft 455 kts 175°
2026-05-08 10:36 7.78430 38.81655 24702 ft 456 kts 175°
2026-05-08 10:36 7.75265 38.81872 24917 ft 457 kts 175°
2026-05-08 10:36 7.72085 38.82090 25126 ft 458 kts 175°
2026-05-08 10:36 7.68896 38.82307 25331 ft 459 kts 175°
2026-05-08 10:37 7.65703 38.82526 25545 ft 461 kts 175°
2026-05-08 10:37 7.62503 38.82744 25755 ft 462 kts 175°
2026-05-08 10:37 7.59293 38.82964 25973 ft 463 kts 175°
2026-05-08 10:37 7.56074 38.83185 26197 ft 464 kts 175°
2026-05-08 10:38 7.52851 38.83404 26425 ft 465 kts 175°
2026-05-08 10:38 7.49610 38.83627 26650 ft 466 kts 175°
2026-05-08 10:38 7.46378 38.83851 26859 ft 468 kts 174°
2026-05-08 10:38 7.43137 38.84254 27086 ft 469 kts 168°
2026-05-08 10:39 7.39966 38.85051 27298 ft 471 kts 162°
2026-05-08 10:39 7.36823 38.86010 27503 ft 472 kts 161°
2026-05-08 10:39 7.33679 38.86994 27738 ft 474 kts 161°
2026-05-08 10:39 7.30529 38.87976 27974 ft 475 kts 162°
2026-05-08 10:40 7.27405 38.88947 28208 ft 476 kts 162°
2026-05-08 10:40 7.24237 38.89928 28440 ft 478 kts 162°
2026-05-08 10:40 7.21059 38.90912 28667 ft 479 kts 162°
2026-05-08 10:40 7.17871 38.91898 28886 ft 480 kts 162°
2026-05-08 10:41 7.14668 38.92886 29103 ft 482 kts 162°
2026-05-08 10:41 7.11446 38.93881 29324 ft 483 kts 162°
2026-05-08 10:41 7.08231 38.94874 29550 ft 485 kts 162°
2026-05-08 10:41 7.04990 38.95874 29771 ft 487 kts 162°
2026-05-08 10:42 7.01749 38.96874 30001 ft 488 kts 162°
2026-05-08 10:42 6.98496 38.97879 30224 ft 489 kts 162°
2026-05-08 10:42 6.95279 38.98870 30405 ft 491 kts 162°
2026-05-08 10:42 6.92009 38.99879 30615 ft 492 kts 162°
2026-05-08 10:43 6.88731 39.00890 30834 ft 493 kts 162°
2026-05-08 10:43 6.85449 39.01902 31023 ft 495 kts 162°
2026-05-08 10:43 6.82149 39.02919 31216 ft 497 kts 162°
2026-05-08 10:43 6.78840 39.03940 31405 ft 498 kts 162°
2026-05-08 10:44 6.75515 39.04964 31602 ft 500 kts 162°
2026-05-08 10:44 6.72186 39.05989 31779 ft 501 kts 162°
2026-05-08 10:44 6.68848 39.07018 31954 ft 503 kts 162°
2026-05-08 10:44 6.65497 39.08050 32131 ft 504 kts 162°
2026-05-08 10:45 6.62145 39.09084 32295 ft 505 kts 162°
2026-05-08 10:45 6.58769 39.10124 32474 ft 507 kts 162°
2026-05-08 10:45 6.55400 39.11160 32642 ft 508 kts 162°
2026-05-08 10:45 6.52009 39.12205 32819 ft 509 kts 162°
2026-05-08 10:46 6.48664 39.13234 33006 ft 510 kts 162°
2026-05-08 10:46 6.45275 39.14278 33252 ft 509 kts 162°
2026-05-08 10:46 6.41886 39.15322 33509 ft 508 kts 162°
2026-05-08 10:46 6.38507 39.16363 33776 ft 508 kts 162°
2026-05-08 10:47 6.35128 39.17403 34053 ft 507 kts 162°
2026-05-08 10:47 6.31757 39.18440 34301 ft 506 kts 162°
2026-05-08 10:47 6.28394 39.19474 34549 ft 506 kts 162°
2026-05-08 10:47 6.25031 39.20510 34805 ft 505 kts 162°
2026-05-08 10:48 6.21674 39.21544 35087 ft 504 kts 162°
2026-05-08 10:48 6.18320 39.22575 35366 ft 503 kts 162°
2026-05-08 10:48 6.14975 39.23605 35658 ft 502 kts 162°
2026-05-08 10:48 6.11680 39.24619 35928 ft 502 kts 162°
2026-05-08 10:49 6.08340 39.25646 36214 ft 501 kts 162°
2026-05-08 10:49 6.05009 39.26670 36473 ft 501 kts 162°
2026-05-08 10:49 6.01674 39.27695 36764 ft 500 kts 162°
2026-05-08 10:49 5.98346 39.28716 37051 ft 500 kts 162°
2026-05-08 10:50 5.95019 39.29738 37329 ft 499 kts 162°
2026-05-08 10:50 5.91695 39.30758 37620 ft 499 kts 162°
2026-05-08 10:50 5.88375 39.31777 37954 ft 497 kts 162°
2026-05-08 10:50 5.85103 39.32782 38598 ft 488 kts 162°
2026-05-08 10:51 5.81912 39.33761 39008 ft 484 kts 162°
2026-05-08 10:51 5.78681 39.34752 39224 ft 484 kts 162°
2026-05-08 10:51 5.75458 39.35740 39414 ft 484 kts 162°
2026-05-08 10:51 5.72239 39.36728 39625 ft 484 kts 162°
2026-05-08 10:52 5.69016 39.37716 39850 ft 484 kts 162°
2026-05-08 10:52 5.65789 39.38662 40051 ft 483 kts 166°
2026-05-08 10:52 5.62504 39.39376 40272 ft 482 kts 168°
2026-05-08 10:52 5.59210 39.40002 40496 ft 481 kts 169°
2026-05-08 10:53 5.55910 39.40580 40713 ft 481 kts 170°
2026-05-08 10:53 5.52613 39.41132 40895 ft 481 kts 170°
2026-05-08 10:53 5.49310 39.41676 40950 ft 481 kts 170°
2026-05-08 10:54 5.42720 39.42761 40950 ft 479 kts 170°
2026-05-08 10:54 5.36185 39.43850 40948 ft 479 kts 169°
2026-05-08 10:55 5.29613 39.44957 40945 ft 478 kts 169°
2026-05-08 10:55 5.23049 39.46065 40943 ft 478 kts 169°
2026-05-08 10:56 5.16490 39.47172 40940 ft 478 kts 169°
2026-05-08 10:56 5.09912 39.48280 40935 ft 480 kts 169°
2026-05-08 10:57 5.03320 39.49390 40932 ft 482 kts 169°
2026-05-08 10:57 4.93368 39.51066 40926 ft 484 kts 169°
2026-05-08 10:58 4.86752 39.52178 40921 ft 486 kts 169°
2026-05-08 10:58 4.80082 39.53300 40920 ft 486 kts 169°
2026-05-08 10:59 4.73411 39.54423 40917 ft 485 kts 169°
2026-05-08 10:59 4.66750 39.55543 40914 ft 485 kts 169°
2026-05-08 11:00 4.60105 39.56661 40917 ft 484 kts 169°
2026-05-08 11:00 4.53506 39.57772 40914 ft 483 kts 169°
2026-05-08 11:01 4.46865 39.58888 40914 ft 484 kts 170°
2026-05-08 11:01 4.40229 39.60002 40915 ft 484 kts 169°
2026-05-08 11:02 4.30249 39.61678 40921 ft 484 kts 170°
2026-05-08 11:03 4.23603 39.62794 40930 ft 485 kts 170°
2026-05-08 11:03 4.16994 39.63906 40924 ft 485 kts 170°
2026-05-08 11:04 4.10335 39.65026 40921 ft 485 kts 169°
2026-05-08 11:04 4.03671 39.66144 40924 ft 485 kts 169°
2026-05-08 11:05 3.97021 39.67299 40920 ft 486 kts 168°
2026-05-08 11:05 3.90368 39.68560 40924 ft 486 kts 168°
2026-05-08 11:06 3.83728 39.69837 40919 ft 486 kts 168°
2026-05-08 11:06 3.77077 39.71102 40917 ft 486 kts 168°
2026-05-08 11:07 3.70472 39.72349 40920 ft 486 kts 168°
2026-05-08 11:07 3.63820 39.73605 40918 ft 486 kts 168°
2026-05-08 11:08 3.57179 39.74859 40920 ft 486 kts 168°
2026-05-08 11:08 3.50532 39.76115 40920 ft 486 kts 168°
2026-05-08 11:09 3.43883 39.77372 40920 ft 486 kts 168°
2026-05-08 11:09 3.37232 39.78630 40921 ft 486 kts 168°
2026-05-08 11:10 3.30630 39.79877 40918 ft 486 kts 168°
2026-05-08 11:10 3.23975 39.81135 40917 ft 487 kts 168°
2026-05-08 11:11 3.17328 39.82388 40919 ft 487 kts 168°
2026-05-08 11:11 3.10675 39.83646 40915 ft 487 kts 168°
2026-05-08 11:12 3.04020 39.84901 40912 ft 487 kts 168°
2026-05-08 11:12 2.97366 39.86158 40911 ft 487 kts 168°
2026-05-08 11:13 2.91833 39.87202 40895 ft 487 kts 168°
2026-05-08 11:13 2.85175 39.88457 40891 ft 487 kts 168°
2026-05-08 11:14 2.78520 39.89714 40888 ft 487 kts 168°
2026-05-08 11:14 2.71872 39.90969 40890 ft 487 kts 168°
2026-05-08 11:15 2.65220 39.92225 40885 ft 487 kts 168°
2026-05-08 11:15 2.58563 39.93480 40885 ft 487 kts 168°
2026-05-08 11:16 2.51941 39.94689 40880 ft 487 kts 169°
2026-05-08 11:16 2.45266 39.95872 40879 ft 487 kts 169°
2026-05-08 11:17 2.38603 39.97051 40878 ft 487 kts 169°
2026-05-08 11:17 2.31933 39.98240 40876 ft 487 kts 169°
2026-05-08 11:18 2.25270 39.99430 40877 ft 486 kts 169°
2026-05-08 11:18 2.18603 40.00620 40873 ft 486 kts 168°
2026-05-08 11:19 2.11981 40.01801 40870 ft 487 kts 169°
2026-05-08 11:19 2.05315 40.02987 40869 ft 487 kts 169°
2026-05-08 11:20 1.98648 40.04177 40863 ft 487 kts 168°
2026-05-08 11:20 1.91985 40.05365 40861 ft 487 kts 169°
2026-05-08 11:21 1.85321 40.06552 40858 ft 487 kts 168°
2026-05-08 11:21 1.78650 40.07741 40858 ft 487 kts 169°
2026-05-08 11:22 1.71898 40.08129 40861 ft 487 kts 181°
2026-05-08 11:22 1.65137 40.07648 40857 ft 487 kts 184°
2026-05-08 11:23 1.58393 40.07016 40857 ft 486 kts 184°
2026-05-08 11:23 1.51702 40.06382 40856 ft 486 kts 184°
2026-05-08 11:24 1.44953 40.05760 40856 ft 486 kts 184°
2026-05-08 11:24 1.38215 40.05148 40862 ft 486 kts 184°
2026-05-08 11:25 1.31474 40.04540 40858 ft 486 kts 184°
2026-05-08 11:25 1.24731 40.03932 40859 ft 486 kts 184°
2026-05-08 11:26 1.17995 40.03321 40859 ft 486 kts 184°
2026-05-08 11:26 1.11248 40.02710 40858 ft 486 kts 184°
2026-05-08 11:27 1.04558 40.02109 40853 ft 486 kts 184°
2026-05-08 11:27 0.97820 40.01499 40853 ft 486 kts 184°
2026-05-08 11:28 0.91083 40.00895 40855 ft 486 kts 184°
2026-05-08 11:28 0.84351 40.00295 40853 ft 486 kts 184°
2026-05-08 11:29 0.77604 39.99692 40855 ft 486 kts 184°
2026-05-08 11:29 0.70870 39.99090 40854 ft 486 kts 184°
2026-05-08 11:30 0.64134 39.98485 40855 ft 485 kts 184°
2026-05-08 11:30 0.57451 39.97888 40851 ft 486 kts 184°
2026-05-08 11:31 0.50726 39.97289 40855 ft 486 kts 184°
2026-05-08 11:31 0.43994 39.96685 40853 ft 486 kts 184°
2026-05-08 11:32 0.37256 39.96083 40854 ft 486 kts 184°
2026-05-08 11:32 0.30522 39.95481 40853 ft 486 kts 184°
2026-05-08 11:33 0.23784 39.94878 40853 ft 486 kts 184°
2026-05-08 11:33 0.17045 39.94275 40855 ft 486 kts 184°
2026-05-08 11:34 0.10306 39.93671 40856 ft 486 kts 184°
2026-05-08 11:34 0.03619 39.93074 40854 ft 486 kts 184°
2026-05-08 11:35 -0.03127 39.92470 40854 ft 486 kts 184°
2026-05-08 11:35 -0.09870 39.91867 40856 ft 486 kts 184°
2026-05-08 11:36 -0.16615 39.91264 40855 ft 487 kts 184°
2026-05-08 11:36 -0.23361 39.90660 40860 ft 487 kts 184°
2026-05-08 11:37 -0.30110 39.90055 40862 ft 487 kts 184°
2026-05-08 11:37 -0.36833 39.89524 40859 ft 487 kts 183°
2026-05-08 11:38 -0.43595 39.89092 40860 ft 487 kts 182°
2026-05-08 11:38 -0.50368 39.88668 40864 ft 487 kts 182°
2026-05-08 11:39 -0.57139 39.88233 40863 ft 487 kts 182°
2026-05-08 11:39 -0.63864 39.87794 40866 ft 488 kts 183°
2026-05-08 11:40 -0.70634 39.87348 40864 ft 488 kts 183°
2026-05-08 11:40 -0.77405 39.86905 40865 ft 488 kts 183°
2026-05-08 11:41 -0.84179 39.86460 40872 ft 488 kts 183°
2026-05-08 11:41 -0.90951 39.86015 40874 ft 488 kts 183°
2026-05-08 11:42 -0.97721 39.85572 40876 ft 488 kts 183°
2026-05-08 11:42 -1.04506 39.85127 40878 ft 488 kts 183°
2026-05-08 11:43 -1.11281 39.84683 40881 ft 488 kts 183°
2026-05-08 11:43 -1.18058 39.84238 40879 ft 488 kts 183°
2026-05-08 11:44 -1.24825 39.83797 40877 ft 488 kts 183°
2026-05-08 11:44 -1.31558 39.83355 40876 ft 488 kts 183°
2026-05-08 11:45 -1.38330 39.82909 40880 ft 488 kts 183°
2026-05-08 11:45 -1.45101 39.82465 40878 ft 487 kts 183°
2026-05-08 11:46 -1.51870 39.82021 40875 ft 487 kts 183°
2026-05-08 11:46 -1.58629 39.81578 40877 ft 487 kts 183°
2026-05-08 11:47 -1.65386 39.81135 40877 ft 487 kts 183°
2026-05-08 11:47 -1.72099 39.80694 40877 ft 486 kts 183°
2026-05-08 11:48 -1.78851 39.80250 40872 ft 486 kts 183°
2026-05-08 11:48 -1.85601 39.79788 40876 ft 486 kts 183°
2026-05-08 11:49 -1.92353 39.79315 40876 ft 486 kts 183°
2026-05-08 11:49 -1.99094 39.78843 40873 ft 486 kts 183°
2026-05-08 11:50 -2.05842 39.78372 40870 ft 486 kts 183°
2026-05-08 11:50 -2.12583 39.77902 40873 ft 486 kts 183°
2026-05-08 11:51 -2.19334 39.77431 40875 ft 486 kts 183°
2026-05-08 11:51 -2.26074 39.76963 40877 ft 486 kts 183°
2026-05-08 11:52 -2.32808 39.76494 40877 ft 485 kts 183°
2026-05-08 11:52 -2.39503 39.76029 40877 ft 485 kts 183°
2026-05-08 11:53 -2.46251 39.75559 40879 ft 485 kts 183°
2026-05-08 11:53 -2.52983 39.75090 40878 ft 485 kts 183°
2026-05-08 11:54 -2.59713 39.74620 40884 ft 485 kts 183°
2026-05-08 11:54 -2.66459 39.74135 40882 ft 485 kts 183°
2026-05-08 11:55 -2.73193 39.73626 40883 ft 485 kts 183°
2026-05-08 11:55 -2.79878 39.73119 40882 ft 485 kts 183°
2026-05-08 11:56 -2.86605 39.72615 40883 ft 485 kts 183°
2026-05-08 11:56 -2.93329 39.72108 40882 ft 485 kts 183°
2026-05-08 11:57 -3.00059 39.71602 40882 ft 485 kts 183°
2026-05-08 11:57 -3.06786 39.71099 40885 ft 485 kts 183°
2026-05-08 11:58 -3.13507 39.70591 40883 ft 485 kts 183°
2026-05-08 11:58 -3.20242 39.70087 40883 ft 485 kts 183°
2026-05-08 11:59 -3.30331 39.69328 40882 ft 485 kts 183°
2026-05-08 11:59 -3.37058 39.68825 40885 ft 485 kts 183°
2026-05-08 12:00 -3.43773 39.68318 40891 ft 485 kts 183°
2026-05-08 12:00 -3.50509 39.67811 40891 ft 484 kts 183°
2026-05-08 12:01 -3.57231 39.67308 40890 ft 484 kts 183°
2026-05-08 12:01 -3.63949 39.66804 40892 ft 484 kts 182°
2026-05-08 12:02 -3.70624 39.66301 40896 ft 484 kts 183°
2026-05-08 12:02 -3.77349 39.65795 40897 ft 484 kts 182°
2026-05-08 12:03 -3.84072 39.65290 40902 ft 484 kts 182°
2026-05-08 12:03 -3.90804 39.64783 40909 ft 484 kts 183°
2026-05-08 12:04 -3.97499 39.63956 40917 ft 485 kts 188°
2026-05-08 12:04 -4.04137 39.62766 40914 ft 485 kts 189°
2026-05-08 12:05 -4.10770 39.61508 40910 ft 485 kts 189°
2026-05-08 12:05 -4.17349 39.60255 40906 ft 485 kts 189°
2026-05-08 12:06 -4.23979 39.59002 40904 ft 484 kts 189°
2026-05-08 12:06 -4.30599 39.57760 40903 ft 485 kts 189°
2026-05-08 12:07 -4.37231 39.56514 40897 ft 485 kts 189°
2026-05-08 12:07 -4.43860 39.55266 40897 ft 485 kts 189°
2026-05-08 12:08 -4.50495 39.54016 40897 ft 485 kts 188°
2026-05-08 12:08 -4.57130 39.52769 40895 ft 485 kts 189°
2026-05-08 12:09 -4.63768 39.51517 40897 ft 485 kts 188°
2026-05-08 12:09 -4.70370 39.50360 40902 ft 485 kts 185°
2026-05-08 12:10 -4.77079 39.49657 40900 ft 485 kts 183°
2026-05-08 12:10 -4.83806 39.49046 40898 ft 485 kts 182°
2026-05-08 12:11 -4.90538 39.48451 40899 ft 485 kts 182°
2026-05-08 12:11 -4.97260 39.47849 40903 ft 486 kts 182°
2026-05-08 12:12 -5.03995 39.47244 40905 ft 486 kts 182°
2026-05-08 12:12 -5.10737 39.46634 40904 ft 486 kts 183°
2026-05-08 12:13 -5.17469 39.46024 40903 ft 486 kts 182°
2026-05-08 12:13 -5.24203 39.45413 40907 ft 486 kts 182°
2026-05-08 12:14 -5.29805 39.44905 40904 ft 486 kts 182°
2026-05-08 12:14 -5.36543 39.44295 40907 ft 486 kts 182°
2026-05-08 12:15 -5.43230 39.43690 40906 ft 486 kts 182°
2026-05-08 12:15 -5.51101 39.42976 40913 ft 486 kts 182°
2026-05-08 12:16 -5.56697 39.42469 40914 ft 486 kts 182°
2026-05-08 12:16 -5.63436 39.41859 40912 ft 486 kts 182°
2026-05-08 12:17 -5.70170 39.41249 40912 ft 486 kts 182°
2026-05-08 12:17 -5.76903 39.40638 40909 ft 486 kts 182°
2026-05-08 12:18 -5.83637 39.40260 40912 ft 483 kts 174°
2026-05-08 12:18 -5.89102 39.41177 40911 ft 478 kts 160°
2026-05-08 12:19 -5.92575 39.42608 40910 ft 476 kts 150°
2026-05-08 12:19 -5.98350 39.45886 40909 ft 478 kts 147°
2026-05-08 12:20 -6.04035 39.49364 40912 ft 479 kts 146°
2026-05-08 12:20 -6.09682 39.52816 40914 ft 478 kts 146°
2026-05-08 12:21 -6.15391 39.56260 40914 ft 478 kts 147°
2026-05-08 12:21 -6.21105 39.59686 40916 ft 478 kts 147°
2026-05-08 12:22 -6.26801 39.63118 40918 ft 477 kts 146°
2026-05-08 12:22 -6.32427 39.66657 40919 ft 477 kts 145°
2026-05-08 12:23 -6.38030 39.70232 40921 ft 477 kts 145°
2026-05-08 12:23 -6.43630 39.73799 40922 ft 477 kts 146°
2026-05-08 12:24 -6.49254 39.77326 40923 ft 476 kts 146°
2026-05-08 12:24 -6.54856 39.80804 40916 ft 476 kts 146°
2026-05-08 12:25 -6.60493 39.84302 40920 ft 476 kts 146°
2026-05-08 12:25 -6.66121 39.87803 40929 ft 476 kts 146°
2026-05-08 12:26 -6.71747 39.91307 40915 ft 475 kts 146°
2026-05-08 12:26 -6.77375 39.94811 40917 ft 475 kts 146°
2026-05-08 12:27 -6.82990 39.98307 40912 ft 475 kts 146°
2026-05-08 12:27 -6.88612 40.01809 40910 ft 475 kts 146°
2026-05-08 12:28 -6.94193 40.05286 40916 ft 475 kts 146°
2026-05-08 12:28 -6.99808 40.08783 40915 ft 475 kts 146°
2026-05-08 12:29 -7.05431 40.12290 40914 ft 475 kts 146°
2026-05-08 12:29 -7.11049 40.15791 40925 ft 475 kts 146°
2026-05-08 12:30 -7.16662 40.19291 40912 ft 475 kts 146°
2026-05-08 12:30 -7.22278 40.22797 40915 ft 475 kts 146°
2026-05-08 12:31 -7.27893 40.26298 40927 ft 475 kts 146°
2026-05-08 12:31 -7.33516 40.29809 40912 ft 475 kts 146°
2026-05-08 12:32 -7.39129 40.33313 40916 ft 475 kts 146°
2026-05-08 12:32 -7.44747 40.36820 40926 ft 475 kts 146°
2026-05-08 12:33 -7.50328 40.40308 40916 ft 475 kts 146°
2026-05-08 12:33 -7.55946 40.43819 40916 ft 475 kts 146°
2026-05-08 12:34 -7.61557 40.47328 40915 ft 475 kts 146°
2026-05-08 12:34 -7.67176 40.50843 40920 ft 475 kts 146°
2026-05-08 12:35 -7.72800 40.54361 40929 ft 475 kts 146°
2026-05-08 12:35 -7.78415 40.57872 40914 ft 475 kts 146°
2026-05-08 12:36 -7.84025 40.61399 40922 ft 475 kts 146°
2026-05-08 12:36 -7.89579 40.65005 40913 ft 475 kts 145°
2026-05-08 12:37 -7.95125 40.68635 40917 ft 475 kts 145°
2026-05-08 12:37 -8.00668 40.72257 40921 ft 475 kts 145°
2026-05-08 12:38 -8.06179 40.75855 40918 ft 475 kts 145°
2026-05-08 12:38 -8.11727 40.79471 40925 ft 475 kts 145°
2026-05-08 12:39 -8.17270 40.83087 40929 ft 474 kts 145°
2026-05-08 12:39 -8.22896 40.86587 40920 ft 475 kts 147°
2026-05-08 12:40 -8.28539 40.90041 40919 ft 474 kts 147°
2026-05-08 12:40 -8.34167 40.93517 40920 ft 474 kts 147°
2026-05-08 12:41 -8.39786 40.97001 40917 ft 474 kts 147°
2026-05-08 12:41 -8.45409 41.00491 40923 ft 474 kts 147°
2026-05-08 12:42 -8.51035 41.03982 40925 ft 474 kts 147°
2026-05-08 12:42 -8.56614 41.07447 40921 ft 474 kts 147°
2026-05-08 12:43 -8.62227 41.10937 40923 ft 474 kts 147°
2026-05-08 12:43 -8.67849 41.14430 40923 ft 474 kts 147°
2026-05-08 12:44 -8.73466 41.17925 40917 ft 474 kts 147°
2026-05-08 12:44 -8.79082 41.21419 40942 ft 474 kts 147°
2026-05-08 12:45 -8.84696 41.24911 40943 ft 474 kts 147°
2026-05-08 12:45 -8.90312 41.28407 40937 ft 474 kts 147°
2026-05-08 12:46 -8.95930 41.31905 40944 ft 474 kts 147°
2026-05-08 12:46 -9.01547 41.35405 40950 ft 474 kts 147°
2026-05-08 12:47 -9.07164 41.38905 40935 ft 474 kts 147°
2026-05-08 12:47 -9.12741 41.42383 40934 ft 474 kts 147°
2026-05-08 12:48 -9.18354 41.45882 40934 ft 474 kts 147°
2026-05-08 12:48 -9.23967 41.49385 40926 ft 474 kts 147°
2026-05-08 12:49 -9.29587 41.52893 40930 ft 475 kts 147°
2026-05-08 12:49 -9.35207 41.56401 40929 ft 475 kts 147°
2026-05-08 12:50 -9.40827 41.59913 40924 ft 475 kts 147°
2026-05-08 12:50 -9.46451 41.63426 40939 ft 475 kts 147°
2026-05-08 12:51 -9.54880 41.68695 40947 ft 475 kts 147°
2026-05-08 12:52 -9.60474 41.72195 40949 ft 475 kts 147°
2026-05-08 12:52 -9.68918 41.77480 40951 ft 476 kts 147°
2026-05-08 12:53 -9.74548 41.81004 40949 ft 476 kts 147°
2026-05-08 12:53 -9.80181 41.84533 40953 ft 476 kts 147°
2026-05-08 12:54 -9.85812 41.88060 40927 ft 476 kts 147°
2026-05-08 12:54 -9.91447 41.91591 40946 ft 476 kts 147°
2026-05-08 12:55 -9.97082 41.95127 40947 ft 476 kts 147°
2026-05-08 12:55 -10.02715 41.98662 40939 ft 476 kts 147°
2026-05-08 12:56 -10.08348 42.02197 40933 ft 476 kts 147°
2026-05-08 12:56 -10.13939 42.05707 40946 ft 476 kts 147°
2026-05-08 12:57 -10.16753 42.07475 40788 ft 475 kts 147°
2026-05-08 12:57 -10.19555 42.09236 40192 ft 474 kts 147°
2026-05-08 12:57 -10.22359 42.10998 39539 ft 475 kts 147°
2026-05-08 12:57 -10.25167 42.12764 38906 ft 475 kts 147°
2026-05-08 12:58 -10.27979 42.14531 38212 ft 475 kts 147°
2026-05-08 12:58 -10.30790 42.16299 37529 ft 475 kts 147°
2026-05-08 12:58 -10.33596 42.18064 36858 ft 474 kts 147°
2026-05-08 12:58 -10.36396 42.19826 36191 ft 473 kts 147°
2026-05-08 12:59 -10.39192 42.21587 35494 ft 474 kts 147°
2026-05-08 12:59 -10.41998 42.23355 34728 ft 476 kts 147°
2026-05-08 12:59 -10.44819 42.25134 33928 ft 478 kts 147°
2026-05-08 12:59 -10.47652 42.26918 33005 ft 481 kts 148°
2026-05-08 13:00 -10.50498 42.28708 32153 ft 482 kts 148°
2026-05-08 13:00 -10.53357 42.30507 31274 ft 485 kts 148°
2026-05-08 13:00 -10.56236 42.32319 30347 ft 488 kts 148°
2026-05-08 13:00 -10.59141 42.34146 29293 ft 492 kts 148°
2026-05-08 13:01 -10.62004 42.35946 28568 ft 489 kts 148°
2026-05-08 13:01 -10.64874 42.37752 27906 ft 483 kts 148°
2026-05-08 13:01 -10.67719 42.39543 27220 ft 479 kts 147°
2026-05-08 13:01 -10.70541 42.41321 26554 ft 475 kts 147°
2026-05-08 13:02 -10.73333 42.43094 25864 ft 471 kts 146°
2026-05-08 13:02 -10.75999 42.45032 25064 ft 471 kts 142°
2026-05-08 13:02 -10.78585 42.47065 24323 ft 469 kts 141°
2026-05-08 13:02 -10.81146 42.49101 23645 ft 465 kts 141°
2026-05-08 13:03 -10.83686 42.51122 22905 ft 461 kts 141°
2026-05-08 13:03 -10.86200 42.53121 22210 ft 455 kts 141°
2026-05-08 13:03 -10.88678 42.55089 21544 ft 449 kts 141°
2026-05-08 13:03 -10.91125 42.57033 20882 ft 443 kts 141°
2026-05-08 13:04 -10.93535 42.58947 20217 ft 437 kts 141°
2026-05-08 13:04 -10.95917 42.60839 19562 ft 432 kts 141°
2026-05-08 13:04 -10.98277 42.62713 18905 ft 428 kts 141°
2026-05-08 13:04 -11.00611 42.64565 18236 ft 423 kts 142°
2026-05-08 13:05 -11.02916 42.66394 17505 ft 418 kts 142°
2026-05-08 13:05 -11.05194 42.68203 16827 ft 413 kts 142°
2026-05-08 13:05 -11.07414 42.69967 16172 ft 407 kts 142°
2026-05-08 13:05 -11.09633 42.71731 15515 ft 402 kts 142°
2026-05-08 13:06 -11.11823 42.73474 14850 ft 398 kts 142°
2026-05-08 13:06 -11.13994 42.75201 14202 ft 394 kts 142°
2026-05-08 13:06 -11.16141 42.76910 13522 ft 391 kts 142°
2026-05-08 13:06 -11.18270 42.78603 12851 ft 385 kts 142°
2026-05-08 13:07 -11.20365 42.80268 12226 ft 379 kts 141°
2026-05-08 13:07 -11.22431 42.81909 11596 ft 374 kts 141°
2026-05-08 13:07 -11.24467 42.83527 11206 ft 364 kts 141°
2026-05-08 13:07 -11.26410 42.85073 11070 ft 346 kts 141°
2026-05-08 13:08 -11.28256 42.86550 10947 ft 329 kts 140°
2026-05-08 13:08 -11.30013 42.87958 10822 ft 314 kts 140°
2026-05-08 13:08 -11.31690 42.89300 10708 ft 300 kts 140°
2026-05-08 13:08 -11.33304 42.90589 10566 ft 288 kts 140°
2026-05-08 13:09 -11.34850 42.91819 10450 ft 276 kts 140°
2026-05-08 13:09 -11.36353 42.93014 10283 ft 273 kts 140°
2026-05-08 13:09 -11.37849 42.94204 9983 ft 272 kts 140°
2026-05-08 13:09 -11.39346 42.95397 9740 ft 285 kts 139°
2026-05-08 13:10 -11.40923 42.96659 9613 ft 289 kts 139°
2026-05-08 13:10 -11.42497 42.97918 9145 ft 289 kts 139°
2026-05-08 13:10 -11.44081 42.99182 8695 ft 288 kts 139°
2026-05-08 13:10 -11.45646 43.00430 8351 ft 285 kts 139°
2026-05-08 13:11 -11.47204 43.01673 8023 ft 283 kts 139°
2026-05-08 13:11 -11.48750 43.02905 7713 ft 281 kts 139°
2026-05-08 13:11 -11.50288 43.04131 7383 ft 279 kts 139°
2026-05-08 13:11 -11.51814 43.05350 7065 ft 278 kts 139°
2026-05-08 13:12 -11.53328 43.06559 6747 ft 276 kts 139°
2026-05-08 13:12 -11.54836 43.07763 6428 ft 274 kts 139°
2026-05-08 13:12 -11.56335 43.08960 6103 ft 273 kts 139°
2026-05-08 13:12 -11.57827 43.10151 5788 ft 272 kts 139°
2026-05-08 13:13 -11.59312 43.11337 5472 ft 270 kts 139°
2026-05-08 13:13 -11.60792 43.12520 5159 ft 270 kts 139°
2026-05-08 13:13 -11.62262 43.13694 4849 ft 268 kts 139°
2026-05-08 13:13 -11.63723 43.14862 4529 ft 266 kts 139°
2026-05-08 13:14 -11.65150 43.16002 4306 ft 259 kts 139°
2026-05-08 13:14 -11.66028 43.16702 4218 ft 251 kts 139°
2026-05-08 13:14 -11.67308 43.17713 4097 ft 232 kts 140°
2026-05-08 13:14 -11.68534 43.18680 3967 ft 215 kts 139°
2026-05-08 13:15 -11.69679 43.19582 3844 ft 201 kts 139°
2026-05-08 13:15 -11.70756 43.20435 3800 ft 191 kts 137°
2026-05-08 13:15 -11.71597 43.21421 3767 ft 181 kts 115°
2026-05-08 13:15 -11.71755 43.22648 3726 ft 174 kts 79°
2026-05-08 13:16 -11.71187 43.23680 3673 ft 165 kts 45°
2026-05-08 13:16 -11.70194 43.24205 3545 ft 160 kts 18°
2026-05-08 13:16 -11.69127 43.24412 3432 ft 152 kts 11°
2026-05-08 13:16 -11.68070 43.24566 3148 ft 157 kts
2026-05-08 13:17 -11.66977 43.24733 2844 ft 160 kts 10°
2026-05-08 13:17 -11.66250 43.24849 2677 ft 160 kts 10°
2026-05-08 13:17 -11.65140 43.25033 2432 ft 164 kts 10°
2026-05-08 13:17 -11.63982 43.25231 2183 ft 172 kts 10°
2026-05-08 13:18 -11.62820 43.25434 1990 ft 163 kts 10°
2026-05-08 13:18 -11.61742 43.25627 1802 ft 153 kts
2026-05-08 13:18 -11.60703 43.25788 1575 ft 148 kts
2026-05-08 13:18 -11.59687 43.25992 1321 ft 153 kts 14°
2026-05-08 13:19 -11.58680 43.26246 1073 ft 146 kts 11°
2026-05-08 13:19 -11.57706 43.26424 831 ft 138 kts 11°
2026-05-08 13:19 -11.56761 43.26579 630 ft 141 kts 12°
2026-05-08 13:19 -11.55789 43.26750 385 ft 142 kts 11°
2026-05-08 13:20 -11.54818 43.26925 167 ft 140 kts 13°
2026-05-08 13:20 -11.53893 43.27093 86 ft 122 kts
2026-05-08 13:20 -11.53287 43.27197 92 ft 66 kts 11°
2026-05-08 13:20 -11.52868 43.27275 92 ft 58 kts 10°
2026-05-08 13:21 -11.52497 43.27337 89 ft 45 kts 11°
2026-05-08 13:21 -11.52245 43.27385 89 ft 33 kts
2026-05-08 13:21 -11.52122 43.27438 90 ft 10 kts 44°
2026-05-08 13:21 -11.52099 43.27439 89 ft 3 kts 315°
2026-05-08 13:22 -11.52103 43.27424 91 ft 5 kts 245°
2026-05-08 13:22 -11.52179 43.27397 86 ft 16 kts 189°
2026-05-08 13:22 -11.52299 43.27376 88 ft 19 kts 189°
2026-05-08 13:22 -11.52443 43.27350 88 ft 22 kts 189°
2026-05-08 13:23 -11.52596 43.27323 88 ft 23 kts 190°
2026-05-08 13:23 -11.52756 43.27295 88 ft 24 kts 189°
2026-05-08 13:23 -11.52918 43.27266 92 ft 24 kts 190°
2026-05-08 13:23 -11.53086 43.27236 87 ft 25 kts 189°
2026-05-08 13:24 -11.53249 43.27207 89 ft 23 kts 190°
2026-05-08 13:24 -11.53414 43.27177 91 ft 24 kts 190°
2026-05-08 13:24 -11.53552 43.27153 88 ft 18 kts 190°
2026-05-08 13:24 -11.53624 43.27143 87 ft 0 kts 176°
2026-05-08 13:25 -11.53641 43.27147 88 ft 10 kts 161°
2026-05-08 13:25 -11.53662 43.27204 88 ft 10 kts 97°
2026-05-08 13:25 -11.53675 43.27282 86 ft 12 kts 101°
2026-05-08 13:26 -11.53673 43.27362 88 ft 7 kts 58°
2026-05-08 13:26 -11.53641 43.27378 89 ft 6 kts 14°
2026-05-08 13:26 -11.53603 43.27389 90 ft 2 kts 36°
2026-05-08 13:26 -11.53597 43.27409 88 ft 4 kts 86°
2026-05-08 13:27 -11.53611 43.27433 90 ft 3 kts 139°
2026-05-08 13:27 -11.53622 43.27434 87 ft 4 kts 176°
2026-05-08 13:27 -11.53640 43.27423 90 ft 1 kts 224°
2026-05-08 13:27 -11.53643 43.27412 90 ft 1 kts 255°
2026-05-08 13:28 -11.53646 43.27408 90 ft 0 kts 242°
2026-05-08 13:28 -11.53647 43.27406 90 ft 0 kts 242°
2026-05-08 13:28 -11.53647 43.27405 90 ft 0 kts 242°